Simultaneous Nadir Overpasses (SNOs) Predictions

Prediction of SNOs between GOES-17 and LANDSAT-8 Satellite Orbit:

Table of predicted SNOs for the next 14.0 days since TLE Epoch: 1/8/2022
Index Date Time (GOES-17) GOES-17 Lat,Lon LANDSAT-8 Lat,Lon Distance(km) Time Diff (sec)
1 01/08/2022 19:13:57 0.01,-137.22 -0.31,-135.71 170.87 80
2 01/09/2022 07:38:01 -0.01,-137.21 -0.80,-140.90 419.96 80
3 01/11/2022 07:25:50 -0.00,-137.20 -0.14,-137.96 85.23 80
4 01/13/2022 07:10:58 0.01,-137.18 0.47,-134.99 248.73 80
5 01/13/2022 19:32:14 -0.02,-137.18 0.60,-140.16 338.07 80
6 01/15/2022 19:20:02 -0.01,-137.15 -0.01,-137.20 4.70 80
7 01/17/2022 19:10:30 -0.01,-137.12 -0.62,-134.24 328.18 80
8 01/18/2022 07:31:54 0.01,-137.11 -0.48,-139.43 263.32 80
9 01/20/2022 07:17:02 0.00,-137.07 0.13,-136.47 68.84 80
